Temp
23 22 21 21 20 20 21 21 22 23 22 23 23 22 22 23 23 23 23 21 18 18 20 21 21 21 20 21 21 21 21 21
21 20 19 16 16 17 18 19 20 21 23 23 23 22 23 23 23 23 23 22 19 18 18 20 19 20 19 20 20 20 20 20
20 17 15 14 13 13 13 14 18 20 21 23 24 24 24 24 23 23 23 22 21 18 18 19 19 19 18 18 18 18 19 19
17 15 13 13 11 10 9 10 12 17 20 21 23 23 24 24 23 23 22 22 22 19 18 19 19 19 18 18 17 17 16 16
14 13 11 11 10 8 7 7 8 11 13 19 21 23 24 24 23 23 22 22 21 20 19 19 19 18 18 18 17 17 16 15
12 11 10 9 7 7 6 5 5 6 7 11 14 19 23 23 24 23 22 21 21 20 19 19 18 18 18 17 16 16 15 16
11 10 9 9 6 5 4 3 3 3 3 6 8 12 18 22 24 23 21 20 19 19 18 18 18 18 17 16 16 15 15 15
10 10 9 8 6 4 2 1 2 2 2 4 5 7 10 17 21 22 20 19 18 17 18 18 17 17 16 16 16 16 15 15
11 10 8 6 5 3 2 0 0 1 1 2 4 5 6 12 18 19 18 16 15 15 16 16 15 15 16 14 16 16 16 15
10 8 6 5 4 3 1 1 -1 -0 1 1 3 3 5 8 11 13 14 14 15 15 14 14 15 15 14 16 17 15 15 16
9 7 5 4 3 2 2 0 -1 -1 -0 0 1 3 4 6 8 10 12 12 12 14 14 14 14 14 15 15 15 15 15 15
9 7 6 4 3 2 1 -0 -1 -2 -1 -0 0 2 3 4 7 9 10 11 12 13 13 14 13 14 14 14 15 15 14 15
10 8 6 2 2 1 -0 -1 -1 -2 -2 -0 -0 -1 1 2 5 7 9 10 11 12 13 13 14 13 14 13 14 14 14 14
9 8 4 1 1 -0 -0 -2 -2 -2 -2 -1 -0 -0 -0 1 3 5 7 8 9 10 11 12 12 12 13 13 13 12 12 13
9 8 6 4 3 2 0 -1 -2 -2 -2 -1 -0 -0 -0 0 2 3 4 6 7 8 9 10 11 11 12 9 8 8 9 11
8 7 6 5 4 3 1 -0 -1 -2 -2 -1 0 0 1 0 1 2 3 3 6 6 7 8 9 10 5 5 5 5 6 8
7 7 5 5 3 3 1 -0 -0 -1 -2 -1 0 0 1 1 1 3 3 3 4 5 6 6 7 8 5 3 3 3 5 6
6 6 5 4 3 3 1 0 -0 -0 -1 -1 -1 -0 0 0 1 2 2 2 2 3 3 4 5 5 3 2 2 2 5 6
6 5 4 3 3 2 1 1 0 -0 -1 -1 -1 -1 -1 0 1 1 1 2 2 2 2 3 2 3 1 1 1 3 4 4
Height
768 769 769 767 765 763 760 757 755 751 747 745 746 746 747 747 746 747 751 752 755 760 764 765 769 770 773 778 781 784 785 788
774 772 774 773 772 767 763 759 756 752 747 744 740 740 739 739 740 741 743 745 748 752 757 759 760 764 766 771 776 779 782 786
776 778 780 779 775 772 766 762 754 752 747 740 736 732 730 731 731 732 736 738 740 742 748 750 752 757 761 763 768 773 776 781
784 785 783 781 778 774 770 763 756 748 745 739 733 728 724 724 724 725 725 728 731 734 740 743 744 748 750 755 759 764 770 775
795 791 788 784 781 778 774 767 758 749 739 734 728 723 717 714 716 717 718 720 723 727 730 734 737 738 742 744 750 755 762 767
802 799 796 789 786 780 775 769 760 751 744 737 730 719 712 711 706 708 710 713 715 719 722 725 728 731 734 738 739 746 748 740
804 803 798 791 785 779 775 768 761 753 746 738 731 721 708 702 698 697 703 707 709 711 713 716 721 722 727 732 738 743 747 741
808 803 796 790 784 779 772 767 761 755 749 742 731 719 707 698 694 692 697 700 701 702 707 709 713 719 722 726 721 731 739 743
804 803 801 796 788 781 775 769 763 756 751 743 733 721 710 699 691 691 692 694 696 695 699 704 709 713 717 710 710 730 739 741
805 805 802 798 791 785 780 772 765 758 751 746 735 724 715 707 698 688 689 692 692 695 699 703 704 706 708 706 720 720 721 734
806 806 803 798 794 789 782 774 766 761 754 749 741 726 721 714 708 695 690 692 694 695 698 702 702 702 705 708 714 713 716 722
803 804 801 799 795 790 783 776 768 763 755 750 740 729 729 714 714 704 697 697 698 698 702 700 700 701 701 704 701 709 713 718
802 801 799 799 795 790 785 778 772 765 758 748 745 741 733 723 720 711 705 705 703 703 703 697 695 694 697 703 704 708 710 712
800 799 798 796 791 787 784 779 772 766 759 750 747 740 734 732 720 714 713 710 708 705 708 701 697 700 703 705 706 706 707 707
799 798 797 794 790 787 783 779 773 767 760 752 746 739 726 721 723 720 721 717 713 709 707 706 704 705 704 704 703 703 706 703
801 799 796 792 789 786 783 779 774 768 762 755 747 743 735 727 723 720 719 719 718 712 711 709 706 704 706 705 706 706 706 702
802 800 797 793 791 786 783 779 773 769 764 759 754 750 742 740 736 730 725 725 720 716 716 711 707 707 705 710 707 707 704 701
804 802 800 796 792 787 784 779 775 770 766 761 754 750 746 743 739 735 731 728 722 714 717 712 710 711 712 711 705 699 696 697
806 804 801 797 793 789 786 780 776 771 766 761 757 753 745 741 738 733 727 722 715 713 715 709 704 704 705 703 699 697 695 695
Wind_Speed
19 22 24 27 27 26 23 22 22 18 21 19 24 26 27 28 29 29 30 30 34 38 30 28 28 24 28 26 24 24 21 22
23 24 29 33 33 33 32 28 25 23 21 20 22 24 27 29 31 31 32 30 30 36 35 30 29 27 28 30 24 23 21 20
20 28 30 32 34 36 37 36 32 28 26 27 22 24 25 27 29 32 32 32 33 34 38 35 32 32 30 29 29 22 22 22
23 28 31 31 33 35 37 39 37 35 30 30 29 26 26 25 25 26 31 35 34 34 36 34 34 34 32 31 30 27 19 20
21 26 30 32 32 32 33 35 36 37 37 30 28 28 25 27 29 27 29 31 35 36 36 35 35 34 32 32 31 32 29 18
19 23 26 27 31 32 31 33 35 40 41 34 33 33 29 33 26 28 28 30 32 35 33 37 37 35 32 31 34 36 39 30
19 23 24 24 27 30 31 33 34 40 43 41 35 34 36 31 31 28 26 26 31 33 35 35 37 36 32 30 32 23 26 24
15 19 27 28 29 30 31 35 33 37 39 39 39 37 35 33 34 26 26 25 27 32 36 37 35 33 27 31 28 19 23 26
15 19 22 26 29 29 30 31 33 32 38 39 36 37 39 32 29 26 25 20 14 20 27 25 19 15 17 22 19 20 22 29
17 21 22 25 26 27 27 27 31 31 34 36 33 37 38 34 24 8 14 8 10 15 17 19 25 24 25 17 26 28 28 28
15 19 21 24 25 27 25 26 26 33 30 35 30 31 35 32 24 19 14 8 6 6 9 13 17 13 23 23 24 23 26 31
14 18 20 24 24 26 26 25 25 32 29 28 29 26 30 32 24 19 15 10 7 4 1 3 2 7 5 9 13 25 25 29
14 19 19 22 24 24 26 25 24 25 30 27 27 25 20 26 26 22 17 12 8 6 4 4 3 5 3 7 4 16 22 25
16 18 12 14 19 20 24 24 26 23 25 24 27 23 22 18 25 24 19 15 12 9 6 6 5 3 3 7 7 9 11 11
17 15 18 17 19 21 23 24 25 26 24 21 25 27 31 27 24 21 20 16 15 13 11 7 5 3 3 5 9 10 13 15
16 16 19 23 24 25 25 25 24 24 23 24 25 26 25 27 28 28 25 20 15 14 12 9 8 6 10 11 12 12 14 15
16 16 20 22 24 25 26 26 26 24 24 24 22 22 22 20 22 19 15 15 14 12 11 11 10 7 13 12 13 12 12 14
15 15 19 22 23 24 25 26 25 25 23 24 25 25 22 21 19 18 17 15 15 15 15 13 12 10 14 17 18 16 14 14
14 18 20 21 22 23 23 23 23 25 25 26 25 25 27 26 24 23 22 21 22 20 18 18 18 17 22 23 22 14 13 13
Wind_Direction
5 357 356 350 352 344 339 333 326 309 293 255 245 244 239 235 230 226 222 213 214 214 218 219 214 208 203 213 218 217 208 220
358 355 358 357 349 345 340 329 319 312 293 266 248 241 240 234 235 233 226 219 215 218 218 218 206 210 201 205 214 218 216 219
354 7 356 354 348 345 340 336 324 306 296 290 261 257 245 240 233 232 232 225 217 215 217 216 208 207 208 200 203 206 216 209
359 355 354 350 352 348 343 337 333 321 299 290 282 264 255 248 239 241 229 227 223 215 217 216 212 214 202 201 197 192 194 210
357 353 353 350 351 348 345 343 341 339 335 305 284 279 264 236 234 236 235 228 224 222 219 217 215 205 200 194 191 196 199 201
358 356 353 355 352 349 347 345 347 346 344 334 314 293 264 259 241 232 232 230 228 224 218 218 219 210 200 197 196 200 200 183
355 351 349 354 357 356 350 349 348 347 344 340 335 319 288 260 251 234 230 227 227 225 220 223 221 214 203 200 201 203 213 200
346 346 346 348 354 356 358 348 344 348 342 339 339 338 327 287 257 243 232 229 221 222 222 220 218 217 207 210 192 195 214 207
349 347 344 343 346 351 353 355 339 347 345 338 340 345 347 332 261 250 242 220 195 206 209 210 204 208 186 202 191 219 229 221
346 347 347 346 344 346 347 351 349 341 348 337 343 349 349 344 346 93 102 112 148 202 207 213 231 219 244 208 226 221 218 230
340 343 339 344 343 342 343 350 354 341 351 342 332 354 350 346 354 17 58 49 51 122 152 175 183 202 214 209 218 228 230 232
344 339 337 342 341 343 342 349 352 345 343 342 341 0 352 351 354 6 28 29 18 24 335 170 168 186 182 241 237 239 236 240
344 337 343 338 340 343 342 346 348 350 337 353 343 346 353 356 344 7 16 14 14 11 346 34 42 17 340 268 306 243 237 236
339 339 348 333 339 342 343 343 346 349 338 354 343 346 349 347 348 1 4 5 5 8 351 23 37 27 296 281 279 311 284 270
337 340 336 341 345 344 346 345 348 348 344 350 351 347 355 349 352 1 353 358 355 354 355 2 12 352 347 18 354 336 309 301
335 339 339 340 343 342 344 344 347 346 350 350 357 350 355 353 350 341 350 354 351 353 345 354 3 16 37 16 349 324 305 298
339 340 342 340 341 342 342 343 345 348 351 349 351 354 355 349 340 340 344 330 333 353 349 358 0 357 345 340 341 317 305 298
340 341 341 340 339 342 343 342 343 345 351 350 350 350 351 349 344 342 340 336 343 3 346 353 355 352 338 338 337 332 319 307
338 337 338 338 338 343 340 342 344 346 349 349 349 349 347 347 346 346 346 348 356 355 341 349 353 346 344 342 341 338 323 313